Temp
-16 -16 -17 -17 -17 -17 -18 -18 -19 -19 -20 -20 -21 -21 -20 -20 -19 -20 -20 -19 -18 -18 -18 -18 -17 -17 -17 -16 -16 -17 -16 -15 -15 -15 -15 -15 -14 -14 -13 -13 -13 -12 -12 -12
-16 -16 -16 -17 -17 -17 -18 -19 -21 -22 -23 -24 -25 -25 -23 -22 -21 -20 -20 -20 -20 -19 -18 -18 -18 -18 -18 -17 -17 -16 -17 -16 -16 -15 -15 -15 -15 -14 -13 -13 -13 -13 -12 -12
-16 -17 -17 -17 -17 -18 -20 -22 -23 -24 -25 -27 -28 -29 -28 -27 -26 -24 -22 -21 -20 -20 -20 -19 -19 -19 -19 -18 -18 -17 -16 -17 -16 -16 -15 -15 -15 -14 -13 -13 -13 -13 -12 -12
-16 -17 -17 -18 -19 -20 -22 -24 -25 -26 -28 -30 -30 -30 -30 -29 -29 -28 -26 -25 -23 -22 -21 -21 -20 -20 -20 -19 -19 -19 -18 -16 -16 -16 -16 -16 -15 -15 -14 -13 -13 -13 -13 -12
-17 -17 -18 -18 -19 -22 -23 -25 -26 -28 -30 -30 -30 -30 -30 -29 -30 -31 -31 -30 -28 -26 -24 -22 -21 -20 -21 -20 -20 -19 -19 -18 -17 -16 -16 -16 -15 -15 -15 -14 -14 -13 -13 -13
-17 -17 -18 -19 -21 -23 -24 -26 -28 -30 -31 -30 -30 -30 -30 -30 -30 -31 -31 -31 -31 -30 -28 -26 -24 -22 -21 -21 -21 -20 -20 -19 -18 -17 -17 -16 -16 -15 -15 -15 -14 -14 -13 -13
-17 -18 -19 -20 -22 -24 -25 -26 -30 -30 -30 -31 -31 -31 -31 -31 -31 -31 -31 -31 -31 -30 -30 -29 -28 -25 -23 -22 -22 -21 -20 -20 -19 -18 -17 -17 -17 -16 -15 -15 -14 -14 -14 -13
-18 -19 -20 -21 -23 -25 -26 -29 -31 -31 -31 -31 -31 -32 -32 -32 -31 -31 -31 -31 -31 -30 -30 -29 -28 -28 -26 -23 -22 -22 -21 -21 -20 -19 -18 -17 -17 -17 -16 -15 -15 -14 -14 -14
-19 -20 -21 -22 -24 -25 -26 -29 -32 -32 -32 -32 -32 -32 -32 -32 -32 -32 -31 -31 -31 -30 -30 -30 -29 -28 -28 -26 -24 -23 -22 -21 -21 -20 -20 -18 -17 -17 -17 -16 -15 -15 -15 -14
-19 -20 -21 -23 -24 -25 -26 -27 -31 -33 -33 -33 -33 -32 -32 -32 -32 -32 -31 -31 -31 -30 -30 -30 -29 -29 -28 -28 -26 -24 -23 -22 -22 -21 -20 -19 -18 -17 -17 -17 -16 -15 -15 -15
-19 -20 -21 -22 -24 -25 -26 -27 -30 -33 -33 -34 -33 -33 -33 -32 -32 -32 -31 -31 -31 -31 -30 -30 -29 -29 -29 -28 -28 -26 -24 -23 -22 -21 -21 -20 -19 -18 -18 -17 -17 -16 -15 -15
-19 -20 -20 -22 -23 -25 -26 -27 -28 -30 -32 -34 -34 -34 -33 -33 -32 -32 -32 -32 -31 -31 -31 -30 -30 -29 -29 -28 -28 -28 -26 -24 -23 -22 -22 -21 -20 -19 -18 -18 -17 -16 -16 -15
-19 -20 -21 -24 -25 -26 -26 -27 -28 -29 -31 -33 -34 -34 -33 -33 -33 -33 -32 -32 -33 -32 -30 -30 -30 -30 -29 -29 -28 -28 -28 -26 -24 -23 -22 -22 -21 -20 -19 -18 -18 -17 -16 -16
-19 -20 -21 -22 -24 -25 -26 -27 -27 -28 -30 -31 -34 -33 -33 -33 -33 -33 -33 -33 -33 -33 -32 -30 -30 -30 -29 -29 -29 -28 -28 -27 -25 -24 -23 -22 -21 -21 -20 -19 -19 -18 -17 -16
-19 -20 -21 -22 -23 -25 -26 -26 -27 -28 -29 -30 -31 -32 -32 -32 -32 -32 -32 -33 -33 -33 -33 -31 -30 -30 -30 -29 -29 -28 -28 -28 -27 -25 -24 -23 -22 -21 -20 -20 -19 -19 -18 -17
-19 -20 -21 -22 -23 -24 -25 -26 -27 -27 -28 -30 -31 -31 -32 -32 -32 -32 -32 -33 -33 -33 -33 -33 -30 -30 -30 -29 -29 -28 -28 -28 -27 -26 -24 -23 -23 -22 -21 -20 -19 -19 -19 -18
-19 -19 -20 -21 -22 -23 -24 -26 -26 -27 -27 -29 -30 -31 -32 -32 -33 -33 -32 -32 -33 -33 -33 -33 -31 -30 -30 -29 -29 -28 -28 -28 -27 -26 -25 -24 -23 -22 -22 -21 -20 -20 -19 -19
-18 -19 -20 -21 -21 -23 -24 -25 -26 -27 -27 -27 -28 -30 -30 -31 -32 -32 -32 -32 -32 -32 -32 -33 -32 -30 -29 -29 -29 -28 -28 -27 -27 -27 -26 -25 -24 -23 -22 -21 -21 -20 -20 -19
-19 -19 -19 -20 -21 -22 -23 -24 -26 -26 -27 -27 -27 -28 -29 -29 -30 -31 -31 -32 -32 -32 -32 -32 -32 -30 -29 -29 -28 -28 -28 -27 -27 -27 -26 -25 -25 -24 -23 -22 -21 -20 -20 -19
-19 -19 -20 -20 -21 -22 -23 -23 -25 -26 -25 -26 -26 -27 -27 -28 -28 -29 -30 -31 -31 -31 -32 -32 -32 -32 -30 -28 -28 -28 -28 -28 -27 -27 -27 -25 -25 -25 -23 -22 -22 -21 -20 -20
-18 -19 -19 -20 -20 -21 -22 -23 -24 -25 -26 -26 -26 -26 -27 -27 -28 -28 -29 -30 -30 -31 -31 -31 -32 -32 -31 -29 -28 -28 -28 -28 -27 -27 -27 -26 -25 -25 -25 -24 -22 -22 -21 -20
-19 -19 -19 -20 -20 -21 -21 -22 -23 -25 -26 -26 -26 -26 -26 -26 -27 -27 -28 -28 -29 -30 -30 -31 -31 -31 -31 -29 -28 -28 -27 -27 -27 -27 -26 -26 -25 -24 -24 -24 -23 -22 -22 -21
-18 -19 -20 -20 -20 -21 -21 -22 -22 -23 -24 -26 -26 -26 -26 -26 -26 -27 -27 -27 -28 -28 -29 -30 -30 -30 -31 -30 -29 -28 -27 -27 -27 -27 -26 -26 -25 -25 -24 -23 -23 -23 -22 -22
-18 -18 -19 -19 -20 -20 -21 -21 -22 -23 -23 -24 -26 -26 -26 -26 -27 -27 -27 -27 -27 -27 -28 -28 -29 -30 -30 -30 -30 -29 -28 -27 -27 -27 -27 -26 -26 -26 -25 -24 -23 -23 -23 -22
-18 -18 -18 -19 -20 -20 -20 -21 -21 -22 -23 -23 -25 -26 -26 -26 -27 -27 -27 -27 -27 -27 -27 -27 -28 -28 -29 -29 -29 -29 -29 -28 -27 -27 -27 -26 -26 -26 -25 -25 -24 -23 -22 -22
-18 -18 -18 -19 -19 -20 -20 -21 -21 -21 -22 -23 -24 -24 -25 -26 -27 -27 -27 -27 -27 -27 -27 -27 -27 -27 -27 -28 -28 -29 -29 -28 -28 -27 -26 -26 -26 -26 -26 -25 -25 -25 -24 -23
Height
5747 5738 5729 5720 5710 5699 5688 5677 5663 5653 5644 5641 5634 5627 5626 5636 5640 5643 5645 5649 5653 5657 5663 5668 5672 5676 5681 5688 5696 5704 5710 5717 5724 5731 5737 5743 5748 5755 5761 5765 5767 5771 5774 5778
5736 5725 5715 5704 5694 5681 5667 5653 5640 5631 5620 5614 5606 5595 5598 5603 5608 5613 5620 5625 5630 5637 5642 5648 5654 5659 5664 5670 5678 5688 5697 5704 5710 5717 5724 5731 5737 5744 5751 5756 5758 5762 5766 5770
5727 5717 5705 5694 5680 5667 5649 5634 5621 5610 5602 5592 5592 5583 5581 5581 5582 5585 5590 5597 5605 5612 5621 5628 5634 5641 5647 5653 5660 5669 5680 5690 5696 5702 5710 5718 5725 5732 5740 5745 5748 5752 5757 5761
5722 5711 5699 5684 5668 5653 5637 5621 5607 5596 5590 5590 5585 5583 5577 5573 5569 5566 5567 5571 5577 5586 5596 5607 5614 5621 5628 5636 5643 5651 5661 5672 5682 5688 5696 5704 5711 5719 5727 5734 5739 5744 5749 5752
5715 5703 5689 5673 5655 5638 5626 5610 5596 5586 5583 5582 5579 5579 5571 5568 5563 5558 5557 5557 5559 5564 5571 5582 5593 5603 5609 5617 5626 5635 5644 5654 5666 5674 5681 5690 5697 5706 5714 5722 5729 5733 5738 5744
5709 5697 5682 5665 5646 5627 5613 5601 5587 5581 5580 5580 5575 5574 5565 5563 5560 5556 5553 5553 5553 5554 5556 5560 5570 5582 5591 5599 5608 5617 5628 5638 5648 5659 5667 5674 5683 5692 5701 5710 5718 5723 5726 5733
5699 5687 5673 5658 5643 5625 5608 5592 5587 5587 5582 5576 5570 5567 5562 5559 5556 5555 5552 5550 5548 5547 5549 5551 5554 5562 5572 5581 5590 5600 5610 5621 5632 5641 5652 5660 5669 5678 5686 5696 5705 5712 5715 5721
5692 5677 5664 5646 5631 5614 5597 5585 5580 5578 5578 5573 5567 5563 5560 5557 5555 5552 5550 5548 5546 5544 5543 5545 5547 5550 5556 5564 5572 5582 5593 5604 5616 5625 5636 5646 5654 5664 5673 5681 5691 5699 5706 5710
5687 5672 5656 5640 5624 5612 5598 5587 5577 5575 5574 5570 5564 5562 5557 5554 5551 5548 5546 5544 5543 5542 5540 5540 5541 5543 5545 5549 5557 5565 5577 5588 5599 5611 5619 5630 5640 5649 5659 5667 5677 5686 5694 5700
5683 5668 5652 5636 5621 5609 5598 5584 5578 5573 5570 5567 5562 5556 5554 5550 5548 5545 5543 5541 5539 5537 5536 5535 5535 5536 5537 5539 5544 5550 5559 5571 5583 5594 5605 5614 5624 5635 5644 5652 5662 5673 5681 5688
5680 5667 5652 5634 5622 5609 5598 5587 5576 5570 5567 5563 5561 5558 5550 5546 5543 5540 5537 5535 5533 5532 5529 5528 5528 5529 5530 5530 5532 5537 5544 5554 5567 5578 5589 5600 5609 5620 5630 5638 5648 5659 5667 5676
5679 5666 5651 5640 5627 5614 5602 5587 5576 5569 5566 5561 5555 5553 5546 5543 5539 5535 5532 5528 5524 5523 5522 5521 5520 5520 5522 5524 5525 5527 5531 5539 5550 5562 5574 5585 5595 5605 5615 5624 5633 5645 5653 5663
5676 5662 5648 5630 5618 5604 5599 5591 5579 5570 5561 5557 5553 5551 5543 5538 5534 5531 5526 5522 5517 5512 5512 5514 5514 5514 5515 5517 5518 5519 5521 5525 5534 5546 5558 5570 5580 5590 5600 5611 5619 5630 5640 5649
5677 5663 5651 5639 5627 5615 5604 5594 5583 5573 5563 5557 5550 5544 5539 5535 5530 5527 5522 5517 5512 5506 5501 5504 5507 5508 5509 5511 5512 5513 5514 5515 5521 5530 5543 5555 5566 5577 5587 5597 5606 5616 5627 5636
5676 5664 5651 5640 5628 5616 5606 5597 5587 5576 5566 5556 5550 5541 5535 5531 5527 5522 5518 5513 5508 5502 5498 5494 5498 5501 5503 5504 5506 5507 5508 5507 5510 5518 5529 5540 5552 5563 5573 5583 5593 5603 5613 5622
5676 5664 5653 5642 5630 5620 5608 5598 5588 5577 5566 5556 5547 5540 5533 5527 5522 5517 5513 5509 5504 5499 5494 5489 5490 5495 5498 5499 5500 5501 5502 5502 5503 5507 5517 5528 5538 5550 5560 5570 5580 5589 5600 5609
5675 5665 5654 5643 5632 5621 5611 5598 5588 5578 5567 5557 5548 5540 5531 5524 5518 5513 5510 5505 5500 5495 5491 5486 5484 5488 5492 5494 5495 5496 5497 5498 5498 5500 5507 5516 5526 5536 5547 5557 5566 5576 5586 5596
5676 5665 5655 5645 5633 5621 5610 5600 5590 5579 5570 5560 5550 5540 5531 5522 5515 5510 5506 5502 5498 5494 5489 5484 5480 5482 5485 5489 5491 5492 5493 5494 5494 5495 5500 5507 5515 5524 5534 5544 5553 5563 5572 5582
5675 5665 5656 5645 5634 5626 5614 5603 5594 5585 5575 5566 5555 5546 5536 5525 5514 5507 5503 5500 5496 5493 5488 5483 5478 5477 5479 5483 5487 5488 5489 5490 5491 5492 5494 5500 5506 5513 5522 5532 5540 5549 5559 5568
5676 5665 5656 5645 5635 5624 5615 5605 5596 5588 5578 5569 5560 5550 5540 5530 5520 5510 5504 5500 5496 5492 5487 5482 5478 5474 5475 5478 5482 5485 5486 5486 5488 5489 5490 5494 5499 5504 5512 5520 5527 5537 5546 5555
5675 5665 5655 5646 5636 5627 5617 5607 5597 5589 5583 5572 5565 5555 5544 5534 5525 5516 5508 5501 5496 5491 5487 5482 5478 5474 5473 5474 5477 5480 5482 5483 5484 5486 5487 5489 5492 5497 5502 5508 5516 5524 5533 5541
5674 5664 5654 5646 5637 5629 5618 5610 5599 5590 5583 5576 5568 5559 5549 5540 5531 5522 5512 5504 5497 5492 5487 5483 5478 5475 5472 5471 5473 5475 5478 5480 5481 5482 5484 5485 5486 5491 5496 5500 5505 5512 5519 5527
5675 5665 5655 5646 5637 5628 5619 5609 5601 5592 5583 5576 5569 5561 5554 5546 5537 5528 5518 5509 5501 5493 5487 5482 5479 5475 5472 5470 5469 5471 5473 5475 5477 5478 5480 5482 5483 5484 5489 5492 5496 5501 5507 5513
5675 5664 5655 5646 5638 5628 5620 5611 5602 5593 5584 5577 5570 5563 5557 5550 5541 5533 5523 5514 5506 5498 5490 5483 5478 5474 5472 5469 5467 5467 5468 5470 5472 5474 5476 5477 5479 5480 5482 5485 5488 5492 5497 5502
5673 5663 5655 5646 5637 5628 5619 5611 5602 5593 5585 5577 5570 5565 5558 5551 5543 5536 5528 5520 5512 5503 5495 5487 5480 5475 5470 5468 5466 5464 5464 5465 5466 5468 5470 5472 5473 5475 5477 5478 5479 5482 5486 5490
5671 5662 5653 5644 5636 5627 5619 5611 5602 5593 5585 5578 5571 5565 5558 5551 5544 5539 5532 5524 5517 5508 5500 5492 5485 5478 5472 5467 5464 5463 5461 5461 5461 5463 5464 5467 5468 5469 5470 5472 5473 5474 5476 5479
Wind_Speed
36 41 45 49 53 57 62 66 72 71 67 65 65 69 75 73 73 70 70 70 69 70 66 66 67 66 66 67 63 62 63 61 58 56 54 51 50 48 44 40 40 40 40 37
46 50 53 56 60 65 72 72 64 60 57 52 48 54 59 62 71 78 77 75 75 74 73 71 69 70 68 67 67 65 62 64 64 60 57 54 53 49 47 45 46 42 43 41
50 55 57 61 66 73 68 61 56 54 50 44 31 33 37 40 48 57 70 81 82 79 76 77 75 72 71 71 69 67 66 62 65 65 63 58 55 52 48 48 50 48 46 43
51 56 59 65 72 68 58 53 51 47 35 13 16 21 26 26 28 34 47 59 75 86 83 79 80 78 74 73 72 70 68 67 64 65 64 64 60 56 52 49 52 52 48 47
53 57 61 67 71 63 55 49 45 34 18 16 16 17 23 20 23 23 28 30 42 63 79 84 80 82 78 75 73 72 70 68 67 66 66 64 64 60 56 53 49 54 53 50
52 57 62 69 64 62 56 47 34 20 14 12 17 10 22 19 18 14 16 25 27 28 40 61 74 80 81 78 74 74 71 70 70 68 67 66 64 62 60 56 53 53 57 52
57 60 65 69 62 57 57 50 23 9 15 19 20 16 18 20 22 18 20 22 24 25 29 30 42 67 79 79 76 74 73 71 71 71 70 68 66 64 63 60 56 55 57 55
58 62 66 69 63 59 58 49 32 16 12 17 21 10 16 18 17 15 16 17 15 18 22 36 34 39 59 74 78 74 73 71 70 70 71 70 68 66 64 63 61 59 57 58
58 62 66 66 60 58 57 48 32 15 13 12 20 19 15 16 16 20 20 19 17 16 14 16 27 35 41 55 73 78 75 72 69 70 70 71 70 68 66 66 64 63 60 58
59 61 67 63 59 56 54 53 35 18 13 12 19 20 20 20 20 20 18 20 22 23 22 18 17 21 27 34 54 71 78 74 71 68 70 70 70 69 68 67 66 64 64 60
60 62 63 63 57 55 54 52 42 21 18 15 13 16 20 19 21 24 26 26 24 23 23 24 24 21 20 22 33 54 71 77 73 70 68 71 71 70 70 68 67 66 67 64
60 61 64 61 56 51 51 53 48 36 24 14 16 17 18 19 22 23 23 25 29 30 26 23 25 25 23 21 20 30 57 71 75 73 69 68 74 72 71 70 67 67 68 67
59 61 62 61 57 53 51 49 50 43 35 21 18 18 24 25 25 25 27 27 25 26 32 26 24 26 26 24 25 24 29 56 72 72 72 69 70 74 73 71 68 67 68 68
57 59 59 58 53 50 48 49 48 47 40 31 20 25 24 24 24 25 27 29 26 25 23 33 26 24 25 26 23 21 21 28 59 70 68 69 69 70 74 74 71 68 67 68
56 56 57 57 55 50 47 47 47 47 44 39 31 27 23 20 21 24 25 27 26 23 23 25 33 25 23 20 19 20 18 22 33 60 64 65 67 67 71 73 73 70 68 69
54 56 56 55 53 50 47 47 48 49 47 44 40 32 29 23 23 26 27 26 25 22 22 16 30 27 22 21 18 16 17 14 26 41 56 60 60 65 68 70 72 71 68 69
53 55 56 55 54 51 49 44 46 48 50 48 44 41 34 29 26 27 24 23 22 22 21 18 19 27 24 21 19 16 15 13 12 31 46 56 59 61 67 69 72 73 70 69
50 53 55 53 55 53 49 43 43 46 48 51 49 46 46 37 27 22 21 20 20 21 21 18 11 23 28 24 19 16 14 13 9 16 35 44 55 57 60 64 70 72 72 71
49 51 53 54 53 50 48 45 43 44 46 49 50 49 48 50 41 27 18 19 19 21 21 19 12 15 28 28 22 19 15 12 9 10 26 34 41 52 57 59 63 70 73 72
48 49 51 54 52 52 49 47 44 43 45 47 49 50 50 48 48 38 23 17 18 20 20 20 17 7 18 25 23 19 17 13 12 8 16 33 36 39 48 56 60 63 70 73
49 48 49 50 52 49 47 47 44 42 41 43 45 49 49 49 48 45 36 23 21 20 20 21 21 12 8 19 23 20 17 14 13 11 11 20 37 40 41 47 55 60 65 70
48 47 47 48 50 49 47 44 43 39 37 38 41 44 46 48 47 48 44 39 28 23 21 20 20 18 9 14 21 24 21 17 15 14 13 14 28 40 41 39 43 48 59 63
46 45 45 45 47 48 47 45 43 41 38 36 37 38 41 44 46 47 46 46 40 36 26 20 18 17 16 8 16 24 25 23 18 16 16 17 18 30 39 36 38 43 43 48
46 46 44 47 46 46 46 45 43 41 40 37 35 34 35 38 41 43 45 46 45 43 36 31 20 16 14 12 9 18 26 27 26 22 18 17 21 19 26 39 43 43 46 45
47 47 45 45 48 45 45 44 43 42 40 38 36 33 33 34 36 39 40 41 43 43 42 39 31 26 17 14 12 11 19 28 30 29 25 22 19 21 22 29 36 44 49 52
45 47 45 44 47 47 44 44 42 41 39 37 36 35 34 33 33 33 35 38 39 40 40 40 38 34 28 22 14 12 11 18 28 33 32 30 27 24 23 22 30 35 43 46
Wind_Direction
329 328 324 323 320 317 314 311 308 303 297 288 279 272 265 261 257 255 253 250 247 248 244 243 242 240 240 238 234 232 236 241 240 238 237 237 240 237 234 235 238 236 235 237
337 334 331 327 323 319 318 316 311 305 301 295 285 275 271 262 256 252 249 248 248 244 244 244 242 242 242 241 239 233 230 234 240 239 239 237 238 236 234 234 236 233 233 234
339 337 334 330 327 327 324 321 315 312 308 302 295 278 281 277 263 253 248 245 244 242 241 240 243 241 241 241 240 239 233 229 234 238 239 238 239 238 231 231 233 233 230 232
339 339 336 333 332 332 333 326 321 316 311 292 301 274 290 303 298 277 256 246 242 241 239 238 238 240 239 239 240 239 238 232 229 234 236 238 237 237 233 228 232 236 232 230
341 341 339 338 339 339 338 333 328 318 306 285 290 287 299 305 316 292 279 273 256 243 240 237 234 237 239 238 237 237 237 236 230 230 234 235 237 236 236 230 226 233 235 232
344 345 343 344 346 344 345 343 338 335 322 286 291 295 289 305 314 326 309 282 270 262 253 244 235 232 235 238 238 236 235 234 234 228 231 234 235 236 236 233 227 228 234 231
348 349 348 349 353 350 350 351 1 305 296 288 304 309 299 306 308 308 303 304 293 269 245 241 241 234 232 234 237 237 236 234 232 233 228 230 232 234 235 234 231 227 230 231
352 352 352 353 357 357 357 352 352 356 300 297 303 294 292 285 295 288 298 298 286 288 272 247 241 241 235 232 234 235 235 235 232 231 231 228 230 231 234 234 231 231 228 230
355 355 355 358 360 2 1 355 353 345 320 323 291 290 285 276 296 302 297 299 298 294 284 271 251 250 247 234 234 235 234 234 234 231 231 230 228 229 231 234 231 230 230 230
357 357 359 0 2 5 5 3 354 344 330 325 304 302 292 294 287 285 287 288 287 283 281 276 254 245 251 246 237 234 234 233 232 231 230 230 228 227 228 231 232 229 230 229
359 0 1 2 4 6 7 8 6 358 321 322 311 297 316 320 307 298 291 283 279 280 279 270 266 259 253 252 245 237 233 234 233 232 230 228 229 226 227 229 230 229 229 230
1 2 2 3 5 10 9 12 10 5 341 318 323 309 319 324 323 323 321 314 284 267 266 269 268 266 263 261 260 245 235 231 233 232 231 230 229 228 227 227 230 229 229 229
2 3 4 4 5 8 8 11 13 8 1 340 328 291 320 320 321 324 326 327 330 286 255 256 257 258 258 259 262 261 249 235 230 231 232 230 230 229 228 227 229 229 229 230
3 3 6 6 5 5 9 11 11 13 9 357 333 333 323 322 322 319 321 329 335 338 278 246 248 255 249 253 258 256 259 247 232 229 228 230 230 230 229 229 229 230 229 230
4 5 6 6 6 6 9 11 13 12 11 11 1 351 343 336 330 328 332 330 334 344 331 257 242 247 258 250 255 255 250 258 236 228 227 226 229 229 229 229 229 229 230 231
4 6 6 7 7 7 7 8 13 14 12 12 7 359 348 342 338 333 335 333 337 341 338 310 248 240 249 258 260 263 255 258 236 226 222 224 223 225 227 228 229 229 229 230
2 5 6 5 8 6 9 8 9 14 13 11 10 7 353 341 333 329 336 341 342 342 339 332 263 249 241 251 260 264 259 256 253 223 222 221 222 221 224 226 228 230 230 229
0 3 5 6 6 8 8 9 10 11 13 13 12 11 11 4 347 329 335 345 345 345 344 342 293 250 248 247 257 268 266 262 251 242 217 224 224 224 222 223 226 228 231 230
359 1 4 5 6 8 8 10 11 13 15 15 14 14 13 15 12 5 346 346 345 349 354 350 342 249 246 250 254 260 268 265 244 260 227 214 224 228 227 224 225 228 230 231
359 358 2 3 5 6 6 8 10 12 18 18 18 18 17 16 17 14 5 355 351 354 357 358 357 320 242 244 247 250 258 272 243 231 254 227 215 221 227 229 229 229 230 232
356 358 359 2 3 5 6 7 8 11 13 14 17 19 20 19 19 19 16 3 358 358 359 1 6 358 271 238 240 241 247 260 256 236 232 246 226 222 218 223 228 228 230 232
354 356 357 0 1 2 3 6 7 8 8 8 13 18 21 22 21 22 21 19 6 354 357 0 4 7 341 252 238 239 239 244 251 243 229 229 235 225 223 223 223 225 227 230
355 355 354 357 359 360 0 3 7 8 8 7 7 11 17 19 23 24 23 24 21 18 6 352 357 1 1 319 249 239 240 242 244 248 238 228 218 223 225 230 227 221 224 229
357 355 354 354 357 357 359 0 2 6 6 6 6 5 7 15 17 19 23 26 25 25 20 18 2 349 353 350 288 249 244 245 248 247 253 246 234 220 221 228 227 229 227 230
355 356 355 354 355 356 357 358 359 2 5 4 4 2 2 6 11 14 18 20 23 24 25 24 20 15 358 348 343 284 251 244 248 253 255 259 256 242 230 225 228 229 230 230
353 355 355 355 356 356 356 356 356 359 2 2 360 0 2 2 3 5 10 13 17 21 24 25 25 25 20 14 354 345 305 265 247 249 255 256 259 260 257 250 232 231 231 230